Regional Weather Roundup
Issued by NWS

Home | Current Version | Previous Version | Graphics & Text | Print | Product List | Glossary On
Versions: 1 2 3 4 5 6 7 8 9 10 11 12 13 14 15 16 17 18 19 20 21 22 23 24 25 26 27 28 29 30 31 32 33 34 35 36 37 38 39 40 41 42 43 44 45 46 47 48 49 50
000
ASUS43 KLSX 231057
RWRMO

WEATHER SUMMARY FOR MISSOURI
NATIONAL WEATHER SERVICE SPRINGFIELD MO
500 AM CST THU NOV 23 2017

NOTE: "FAIR" INDICATES FEW OR NO CLOUDS BELOW 12,000 FEET WITH NO
       SIGNIFICANT WEATHER AND/OR OBSTRUCTIONS TO VISIBILITY.
       CURRENT SKY AND/OR WEATHER CONDITIONS ARE NOT AVAILABLE FOR
       CHILLICOTHE AND FARMINGTON.

MOZ001>031-035>038-043-044-053-054-231200-
...NORTHERN AND WESTERN MISSOURI...

CITY           SKY/WX    TMP DP  RH WIND       PRES   REMARKS
KANSAS CTY INT CLEAR     36  22  56 SW14      30.04F WCI  27
LEE`S SUMMIT   CLEAR     36  22  56 SW14      30.05F WCI  27
ST JOSEPH      CLEAR     32  23  69 S3        30.05R
CHILLICOTHE      N/A     32  22  66 S5        30.05S WCI  27

$$
MOZ066>068-077>081-088>096-101>105-231200-
...SOUTHWEST MISSOURI...

CITY           SKY/WX    TMP DP  RH WIND       PRES   REMARKS
SPRINGFIELD    CLEAR     31  24  75 S7        30.13F WCI  24
JOPLIN         CLEAR     32  24  72 S6        30.14F WCI  26

$$
MOZ032>034-039>042-045>050-055>058-069>072-231200-
...CENTRAL MISSOURI...

CITY           SKY/WX    TMP DP  RH WIND       PRES   REMARKS
COLUMBIA       NOT AVBL
JEFFERSON CITY CLEAR     31  18  58 SE5       30.13F WCI  26
ROLLA          CLEAR     30  16  56 SW12      30.12F WCI  20
SEDALIA        CLEAR     36  24  62 SW14      30.09F WCI  27
WARRENSBURG    CLEAR     32  23  69 S8        30.07F WCI  25

$$
MOZ051-052-059>065-231200-
...EAST CENTRAL MISSOURI...

CITY           SKY/WX    TMP DP  RH WIND       PRES   REMARKS
ST LOUIS INTL  MOCLDY    32  21  64 CALM      30.14F

$$
MOZ072>076-082>087-097>100-106>115-231200-
...SOUTH CENTRAL AND SOUTHEAST MISSOURI...

CITY           SKY/WX    TMP DP  RH WIND       PRES   REMARKS
CAPE GIRARDEAU CLOUDY    26  23  88 CALM      30.20F
POPLAR BLUFF   CLOUDY    26  23  88 CALM      30.20S
WEST PLAINS    CLOUDY    25  19  78 CALM      30.16F

$$



USA.gov is the U.S. government's official web portal to all federal, state and local government web resources and services.